TimeMDT,TemperatureF,Dew PointF,Humidity,Sea Level PressureIn,VisibilityMPH,Wind Direction,Wind SpeedMPH,Gust SpeedMPH,PrecipitationIn,Events,Conditions,WindDirDegrees,DateUTC
12:53 AM,73.0,59.0,61,29.64,10.0,Calm,Calm,-,N/A,,Overcast,0,2013-09-27 06:53:00
1:53 AM,72.0,59.0,64,29.64,10.0,SE,8.1,-,N/A,,Partly Cloudy,140,2013-09-27 07:53:00
2:53 AM,66.9,59.0,76,29.64,10.0,South,3.5,-,N/A,,Clear,190,2013-09-27 08:53:00
3:53 AM,66.0,59.0,78,29.63,10.0,South,4.6,-,N/A,,Clear,170,2013-09-27 09:53:00
4:53 AM,64.9,59.0,81,29.65,10.0,SW,3.5,-,N/A,,Mostly Cloudy,220,2013-09-27 10:53:00
5:53 AM,68.0,60.1,76,29.67,10.0,Calm,Calm,-,N/A,,Mostly Cloudy,0,2013-09-27 11:53:00
6:53 AM,68.0,60.1,76,29.70,10.0,South,5.8,-,N/A,,Mostly Cloudy,180,2013-09-27 12:53:00
7:53 AM,68.0,63.0,84,29.72,10.0,SSE,5.8,-,0.00,Rain,Light Rain,150,2013-09-27 13:53:00
8:53 AM,69.1,63.0,81,29.71,10.0,SE,4.6,-,0.03,,Overcast,140,2013-09-27 14:53:00
9:53 AM,72.0,63.0,73,29.71,10.0,SSE,4.6,-,N/A,,Scattered Clouds,150,2013-09-27 15:53:00
10:53 AM,77.0,61.0,58,29.71,10.0,SSE,6.9,-,N/A,,Scattered Clouds,150,2013-09-27 16:53:00
11:53 AM,81.0,60.1,49,29.69,10.0,South,8.1,-,N/A,,Mostly Cloudy,170,2013-09-27 17:53:00
12:53 PM,84.0,59.0,43,29.66,10.0,South,6.9,-,N/A,,Partly Cloudy,170,2013-09-27 18:53:00
1:53 PM,86.0,55.0,35,29.63,10.0,South,8.1,-,N/A,,Mostly Cloudy,180,2013-09-27 19:53:00
2:53 PM,86.0,57.0,37,29.61,10.0,South,6.9,-,N/A,,Overcast,180,2013-09-27 20:53:00
3:53 PM,89.1,55.0,31,29.60,10.0,SSW,12.7,23.0,N/A,,Clear,200,2013-09-27 21:53:00
4:53 PM,88.0,55.9,34,29.58,10.0,SW,12.7,-,N/A,,Clear,220,2013-09-27 22:53:00
5:53 PM,86.0,57.0,37,29.59,10.0,SW,9.2,-,N/A,,Clear,220,2013-09-27 23:53:00
6:53 PM,78.1,61.0,56,29.61,10.0,SSW,5.8,-,N/A,,Partly Cloudy,210,2013-09-28 00:53:00
7:53 PM,80.1,62.1,54,29.63,10.0,SE,11.5,20.7,N/A,,Scattered Clouds,130,2013-09-28 01:53:00
8:53 PM,78.1,64.0,62,29.67,10.0,SE,9.2,-,N/A,,Mostly Cloudy,140,2013-09-28 02:53:00
9:53 PM,73.9,66.9,79,29.70,10.0,South,6.9,-,N/A,,Mostly Cloudy,190,2013-09-28 03:53:00
10:53 PM,72.0,66.9,84,29.71,10.0,South,4.6,-,N/A,,Mostly Cloudy,170,2013-09-28 04:53:00
11:53 PM,70.0,66.0,87,29.73,10.0,WNW,4.6,-,N/A,,Partly Cloudy,300,2013-09-28 05:53:00